When you browse on this site, cookies collect data to enhance your experience and personalize the content and advertising you see.
Visit our Privacy Policy to learn more. By continuing to use the site, you agree to this use of cookies and data.

Hourly Weather Newcastle upon Tyne

Today, 24 September, Thursday

Time Temperature Precipitation Wind Pressure Humidity
00:00 +8°C° 0.2 mm 3 mps 739 mmHg 87%
01:00 +8°C° 0.1 mm 3 mps 739 mmHg 88%
02:00 +7°C° 0.1 mm 3 mps 738 mmHg 89%
03:00 +5°C° 0.1 mm 3 mps 738 mmHg 90%
04:00 +6°C° 0 mm 2 mps 738 mmHg 90%
05:00 +6°C° 0 mm 2 mps 738 mmHg 89%
06:00 +6°C° 0 mm 1 mps 738 mmHg 88%
07:00 +8°C° 0 mm 1 mps 738 mmHg 86%
08:00 +8°C° 0 mm 2 mps 738 mmHg 83%
09:00 +9°C° 0 mm 2 mps 738 mmHg 80%
10:00 +9°C° 0.5 mm 3 mps 738 mmHg 80%
11:00 +9°C° 0.5 mm 3 mps 738 mmHg 80%
12:00 +10°C° 0.5 mm 4 mps 737 mmHg 79%
13:00 +10°C° 0.7 mm 4 mps 738 mmHg 80%
14:00 +10°C° 0.7 mm 3 mps 738 mmHg 80%
15:00 +10°C° 0.7 mm 3 mps 738 mmHg 80%
16:00 +9°C° 0.4 mm 3 mps 738 mmHg 84%
17:00 +7°C° 0.4 mm 4 mps 739 mmHg 87%
18:00 +7°C° 0.4 mm 5 mps 739 mmHg 90%
19:00 +7°C° 0.8 mm 5 mps 740 mmHg 90%
20:00 +7°C° 0.8 mm 6 mps 741 mmHg 90%
21:00 +5°C° 0.8 mm 7 mps 741 mmHg 90%
22:00 +6°C° 0.5 mm 7 mps 742 mmHg 87%
23:00 +6°C° 0.5 mm 7 mps 743 mmHg 85%

Tomorrow, 25 September, Friday

Time Temperature Precipitation Wind Pressure Humidity
00:00 +6°C° 0.5 mm 7 mps 743 mmHg 83%
01:00 +5°C° 0.1 mm 7 mps 744 mmHg 83%
02:00 +5°C° 0.1 mm 8 mps 744 mmHg 84%
03:00 +4°C° 0.1 mm 8 mps 745 mmHg 84%
04:00 +4°C° 0.1 mm 8 mps 745 mmHg 85%
05:00 +4°C° 0.1 mm 8 mps 746 mmHg 85%
06:00 +3°C° 0.1 mm 9 mps 747 mmHg 85%
07:00 +5°C° 0.1 mm 9 mps 748 mmHg 83%
08:00 +6°C° 0.1 mm 10 mps 748 mmHg 81%
09:00 +7°C° 0.1 mm 10 mps 749 mmHg 79%
10:00 +7°C° 0.1 mm 10 mps 750 mmHg 78%
11:00 +7°C° 0.1 mm 10 mps 750 mmHg 77%
12:00 +7°C° 0.1 mm 11 mps 751 mmHg 76%
13:00 +8°C° 0 mm 10 mps 751 mmHg 72%
14:00 +8°C° 0 mm 9 mps 752 mmHg 68%
15:00 +8°C° 0 mm 9 mps 752 mmHg 64%
16:00 +9°C° 0 mm 8 mps 753 mmHg 66%
17:00 +8°C° 0 mm 7 mps 753 mmHg 68%
18:00 +7°C° 0 mm 6 mps 753 mmHg 71%
19:00 +5°C° 0 mm 6 mps 753 mmHg 72%
20:00 +4°C° 0 mm 7 mps 754 mmHg 73%
21:00 +4°C° 0 mm 7 mps 754 mmHg 74%
22:00 +3°C° 0 mm 7 mps 754 mmHg 73%
23:00 +3°C° 0 mm 7 mps 753 mmHg 72%

Day after tomorrow, 26 September, Saturday

Time Temperature Precipitation Wind Pressure Humidity
00:00 +3°C° 0 mm 7 mps 753 mmHg 71%
01:00 +3°C° 0 mm 7 mps 753 mmHg 73%
02:00 +3°C° 0 mm 7 mps 753 mmHg 74%
03:00 +2°C° 0 mm 7 mps 753 mmHg 75%
04:00 +3°C° 0 mm 7 mps 753 mmHg 76%
05:00 +3°C° 0 mm 7 mps 753 mmHg 78%
06:00 +3°C° 0 mm 7 mps 753 mmHg 79%
07:00 +4°C° 0.1 mm 8 mps 753 mmHg 76%
08:00 +6°C° 0.1 mm 8 mps 753 mmHg 74%
09:00 +7°C° 0.1 mm 8 mps 753 mmHg 71%
10:00 +7°C° 0.1 mm 8 mps 753 mmHg 69%
11:00 +8°C° 0.1 mm 9 mps 754 mmHg 67%
12:00 +8°C° 0.1 mm 9 mps 754 mmHg 64%
13:00 +8°C° 0 mm 9 mps 754 mmHg 66%
14:00 +8°C° 0 mm 9 mps 754 mmHg 67%
15:00 +9°C° 0 mm 8 mps 754 mmHg 69%
16:00 +7°C° 0 mm 8 mps 754 mmHg 71%
17:00 +6°C° 0 mm 8 mps 755 mmHg 73%
18:00 +6°C° 0 mm 7 mps 755 mmHg 75%
19:00 +5°C° 0 mm 7 mps 755 mmHg 77%
20:00 +5°C° 0 mm 7 mps 755 mmHg 78%
21:00 +5°C° 0 mm 7 mps 756 mmHg 80%
22:00 +5°C° 0 mm 6 mps 756 mmHg 80%
23:00 +5°C° 0 mm 6 mps 756 mmHg 80%

27 September, Sunday

Time Temperature Precipitation Wind Pressure Humidity
00:00 +5°C° 0 mm 6 mps 756 mmHg 81%
01:00 +5°C° 0 mm 6 mps 755 mmHg 81%
02:00 +4°C° 0 mm 6 mps 755 mmHg 81%
03:00 +4°C° 0 mm 6 mps 755 mmHg 82%
04:00 +4°C° 0 mm 6 mps 755 mmHg 82%
05:00 +3°C° 0 mm 5 mps 755 mmHg 83%
06:00 +2°C° 0 mm 5 mps 756 mmHg 84%
07:00 +3°C° 0 mm 5 mps 755 mmHg 80%
08:00 +6°C° 0 mm 5 mps 755 mmHg 77%
09:00 +7°C° 0 mm 6 mps 755 mmHg 74%
10:00 +8°C° 0 mm 5 mps 755 mmHg 70%
11:00 +9°C° 0 mm 5 mps 755 mmHg 66%
12:00 +11°C° 0 mm 4 mps 755 mmHg 63%
13:00 +11°C° 0 mm 4 mps 755 mmHg 61%
14:00 +11°C° 0 mm 3 mps 755 mmHg 59%
15:00 +12°C° 0 mm 3 mps 755 mmHg 57%
16:00 +10°C° 0 mm 3 mps 755 mmHg 64%
17:00 +9°C° 0 mm 2 mps 755 mmHg 70%
18:00 +8°C° 0 mm 2 mps 755 mmHg 76%
19:00 +7°C° 0 mm 2 mps 755 mmHg 78%
20:00 +6°C° 0 mm 2 mps 755 mmHg 79%
21:00 +7°C° 0 mm 1 mps 755 mmHg 80%
22:00 +6°C° 0 mm 1 mps 755 mmHg 78%
23:00 +6°C° 0 mm 1 mps 754 mmHg 76%

28 September, Monday

Time Temperature Precipitation Wind Pressure Humidity
00:00 +5°C° 0 mm 2 mps 754 mmHg 74%
01:00 +4°C° 0 mm 2 mps 754 mmHg 73%
02:00 +5°C° 0 mm 1 mps 753 mmHg 71%
03:00 +5°C° 0 mm 1 mps 753 mmHg 70%
04:00 +5°C° 0 mm 1 mps 753 mmHg 67%
05:00 +6°C° 0 mm 1 mps 752 mmHg 65%
06:00 +6°C° 0 mm 1 mps 752 mmHg 63%
07:00 +7°C° 0 mm 1 mps 752 mmHg 60%
08:00 +8°C° 0 mm 2 mps 751 mmHg 58%
09:00 +9°C° 0 mm 2 mps 751 mmHg 55%
10:00 +12°C° 0 mm 2 mps 751 mmHg 56%
11:00 +12°C° 0 mm 3 mps 750 mmHg 57%
12:00 +13°C° 0 mm 3 mps 750 mmHg 58%
13:00 +13°C° 0 mm 3 mps 749 mmHg 64%
14:00 +12°C° 0 mm 4 mps 748 mmHg 69%
15:00 +12°C° 0 mm 4 mps 747 mmHg 74%
16:00 +11°C° 0.3 mm 4 mps 747 mmHg 80%
17:00 +11°C° 0.3 mm 4 mps 747 mmHg 86%
18:00 +10°C° 0.3 mm 4 mps 746 mmHg 92%
19:00 +11°C° 0.2 mm 3 mps 746 mmHg 93%
20:00 +11°C° 0.2 mm 3 mps 746 mmHg 94%
21:00 +12°C° 0.2 mm 2 mps 745 mmHg 95%
22:00 +12°C° 0.1 mm 2 mps 745 mmHg 95%
23:00 +12°C° 0.1 mm 2 mps 745 mmHg 95%

29 September, Tuesday

Time Temperature Precipitation Wind Pressure Humidity
00:00 +10°C° 0.1 mm 2 mps 745 mmHg 95%
01:00 +10°C° 0.2 mm 2 mps 745 mmHg 94%
02:00 +10°C° 0.2 mm 2 mps 744 mmHg 93%
03:00 +10°C° 0.2 mm 2 mps 744 mmHg 93%
04:00 +10°C° 0.4 mm 4 mps 744 mmHg 93%
05:00 +9°C° 0.4 mm 5 mps 744 mmHg 92%
06:00 +9°C° 0.4 mm 6 mps 744 mmHg 92%
07:00 +9°C° 0.2 mm 7 mps 744 mmHg 89%
08:00 +9°C° 0.2 mm 7 mps 744 mmHg 86%
09:00 +9°C° 0.2 mm 8 mps 744 mmHg 83%
10:00 +9°C° 0 mm 8 mps 744 mmHg 83%
11:00 +9°C° 0 mm 8 mps 745 mmHg 82%
12:00 +8°C° 0 mm 9 mps 745 mmHg 82%
13:00 +8°C° 0.1 mm 9 mps 745 mmHg 82%
14:00 +8°C° 0.1 mm 9 mps 745 mmHg 82%
15:00 +8°C° 0.1 mm 10 mps 745 mmHg 81%
16:00 +8°C° 0 mm 9 mps 746 mmHg 80%
17:00 +8°C° 0 mm 9 mps 746 mmHg 78%
18:00 +7°C° 0 mm 8 mps 746 mmHg 76%
19:00 +7°C° 0 mm 8 mps 747 mmHg 77%
20:00 +6°C° 0 mm 7 mps 747 mmHg 79%
21:00 +7°C° 0 mm 6 mps 747 mmHg 81%
22:00 +5°C° 0 mm 6 mps 747 mmHg 83%
23:00 +6°C° 0 mm 5 mps 748 mmHg 85%
Show more